Location: ???????
(52.3000°N, 54.4667°E)
Time: 21:41:06
(UTC+00:00)

ISS - Pass Details

Date: 24 January 2020
Orbit: 415 x 422 km, 51.6° (Epoch: 26 February)

Event Time Altitude Azimuth Distance (km) Brightness Sun altitude
Rises 15:50:02 0° 251° (WSW) 2,376 1.1 -26.6°
Reaches altitude 10° 15:52:08 10° 248° (WSW) 1,511 -0.1 -27.0°
Enters shadow 15:53:25 21° 244° (WSW) 1,009 -1.3 -27.1°
